Location: Chervonnoye
(48.6000°N, 34.4000°E)
Time: 22:28:25
(UTC+00:00)

XW-2F - Visible Passes

Search period start: 01 December 2021 00:00
Search period end: 11 December 2021 00:00
Orbit: 497 x 515 km, 97.5° (Epoch: 01 December)

Date Brightness Start Highest point End Pass type
(mag) Time Alt. Az. Time Alt. Az. Time Alt. Az.
01 Dec ? 03:17:05 10° NE 03:20:14 25° E 03:23:22 10° SSE visible
01 Dec ? 15:33:01 10° SSW 15:36:27 36° W 15:39:56 10° NNW visible
02 Dec ? 02:59:54 10° NE 03:02:20 16° E 03:04:46 10° SE visible
02 Dec ? 04:32:49 10° N 04:36:26 45° WNW 04:40:02 10° SW visible
02 Dec ? 15:14:59 10° S 15:18:38 58° W 15:22:21 10° NNW visible
03 Dec ? 02:43:37 10° ENE 02:44:23 10° E 02:45:09 10° E visible
03 Dec ? 04:14:58 10° N 04:18:44 73° WNW 04:22:28 10° SSW visible
03 Dec ? 14:57:09 10° SSE 15:00:51 87° ENE 15:04:38 10° NNW visible
04 Dec ? 03:57:11 10° NNE 04:00:58 70° E 04:04:43 10° S visible
04 Dec ? 14:39:30 10° SSE 14:43:07 54° ENE 14:46:48 10° N visible
04 Dec ? 16:15:24 10° WSW 16:17:19 14° W 16:19:16 10° WNW visible
05 Dec ? 03:39:31 10° NNE 03:43:09 43° E 03:46:45 10° S visible
05 Dec ? 14:22:01 10° SE 14:25:24 34° ENE 14:28:51 10° N visible
05 Dec ? 15:56:32 10° SW 15:59:23 21° W 16:02:16 10° NW visible
06 Dec ? 03:22:00 10° NE 03:25:17 28° E 03:28:32 10° SSE visible
06 Dec ? 15:38:07 10° SSW 15:41:29 32° W 15:44:52 10° NNW visible
07 Dec ? 03:04:41 10° NE 03:07:22 18° E 03:10:01 10° SE visible
07 Dec ? 04:37:51 10° N 04:41:24 40° WNW 04:44:56 10° SW visible
07 Dec ? 15:19:58 10° S 15:23:36 50° W 15:27:17 10° NNW visible
08 Dec ? 02:47:55 10° ENE 02:49:24 12° E 02:50:51 10° ESE visible
08 Dec ? 04:19:55 10° N 04:23:40 64° WNW 04:27:23 10° SSW visible
08 Dec ? 15:02:04 10° SSE 15:05:47 83° WSW 15:09:34 10° NNW visible
09 Dec ? 04:02:06 10° NNE 04:05:53 80° ESE 04:09:38 10° S visible
09 Dec ? 14:44:19 10° SSE 14:48:00 61° ENE 14:51:44 10° N visible
09 Dec ? 16:20:44 10° WSW 16:22:16 12° W 16:23:49 10° WNW visible
10 Dec ? 03:44:22 10° NNE 03:48:03 49° E 03:51:42 10° S visible
10 Dec ? 14:26:46 10° SE 14:30:15 38° ENE 14:33:47 10° N visible
10 Dec ? 16:01:36 10° SW 16:04:17 19° W 16:06:59 10° NW visible
